Jefferson, NC

4:54 AM EDT on September 15, 2019 (GMT -0400)
Ashe County

Weather History for KGEV - May, 2019

Change the Weather History Date:

Sunday, May 26, 2019

  Actual Average Record
Temperature  
Mean Temperature 72 °F -  
Max Temperature 80 °F 71 °F 82 °F (1989)
Min Temperature 64 °F 50 °F 33 °F (1988)
Cooling Degree Days 7    
Growing Degree Days 22 (Base 50)    
Moisture  
Dew Point 57 °F    
Average Humidity 59    
Maximum Humidity 86    
Minimum Humidity 39    
Precipitation  
Precipitation 0.00 in - - ()
Sea Level Pressure  
Sea Level Pressure 30.21 in    
Wind  
Wind Speed 8 mph (West)    
Max Wind Speed 17 mph    
Max Gust Speed 25 mph    
Visibility 10 miles    
Events      
Averages and records for this station are not official NWS values.
T = Trace of Precipitation, MM = Missing Value Source: NWS Daily Summary

Daily Weather History Graph

Daily Weather History Graph

Search for Another Location

Airport or City:

Astronomy

May. 26, 2019 Rise Set
Actual Time 6:11 AM EDT 8:33 PM EDT
Civil Twilight 5:42 AM EDT 9:03 PM EDT
Nautical Twilight 5:05 AM EDT 9:40 PM EDT
Astronomical Twilight 4:26 AM EDT 10:20 PM EDT
Moon 2:09 AM EDT (5/26) 1:03 PM EDT (5/26)
Length of Visible Light 15h 21m
Length of Day
14h 22m
Waning Gibbous, 50% of the Moon is Illuminated
May 26
Waning Gibbous
May 26
Last Quarter
Jun 3
New
Jun 10
First Quarter
Jun 17
Full

Hourly Weather History & Observations

Time (EDT) Temp. Heat Index Dew Point Humidity Pressure Visibility Wind Dir Wind Speed Gust Speed Precip Events Conditions
12:05 AM 72.5 °F - 60.6 °F 66% 30.24 in 10.0 mi West 12.7 mph 16.1 mph N/A   Clear
12:25 AM 71.6 °F - 60.8 °F 69% 30.24 in 10.0 mi WNW 11.5 mph - N/A   Clear
12:45 AM 71.8 °F - 60.8 °F 68% 30.23 in 10.0 mi West 8.1 mph - N/A   Clear
1:05 AM 70.9 °F - 61.0 °F 71% 30.22 in 10.0 mi WNW 6.9 mph - N/A   Clear
1:25 AM 70.3 °F - 60.6 °F 71% 30.23 in 10.0 mi WNW 3.5 mph - N/A   Clear
1:45 AM 68.0 °F - 60.4 °F 77% 30.22 in 10.0 mi Calm Calm - N/A   Clear
2:05 AM 68.5 °F - 60.3 °F 75% 30.22 in 10.0 mi North 4.6 mph - N/A   Clear
2:25 AM 66.7 °F - 60.3 °F 80% 30.22 in 10.0 mi NNE 3.5 mph - N/A   Clear
2:45 AM 66.4 °F - 60.4 °F 81% 30.22 in 10.0 mi Calm Calm - N/A   Clear
3:05 AM 66.6 °F - 60.3 °F 80% 30.21 in 10.0 mi SW 3.5 mph - N/A   Clear
3:25 AM 67.3 °F - 60.6 °F 79% 30.22 in 10.0 mi SW 3.5 mph - N/A   Clear
3:45 AM 64.8 °F - 59.7 °F 84% 30.21 in 10.0 mi West 4.6 mph - N/A   Clear
4:25 AM 67.3 °F - 59.9 °F 77% 30.21 in 10.0 mi Calm Calm - N/A   Clear
4:45 AM 64.2 °F - 60.1 °F 86% 30.22 in 10.0 mi East 5.8 mph - N/A   Clear
5:05 AM 67.5 °F - 59.4 °F 75% 30.23 in 10.0 mi Calm Calm - N/A   Clear
5:25 AM 65.5 °F - 59.9 °F 82% 30.23 in 10.0 mi WSW 4.6 mph - N/A   Clear
5:45 AM 66.7 °F - 59.7 °F 78% 30.23 in 10.0 mi WSW 5.8 mph - N/A   Clear
6:05 AM 67.5 °F - 59.5 °F 76% 30.24 in 10.0 mi WSW 6.9 mph - N/A   Clear
6:25 AM 67.3 °F - 59.2 °F 75% 30.24 in 10.0 mi West 9.2 mph - N/A   Clear
6:45 AM 68.0 °F - 59.0 °F 73% 30.24 in 10.0 mi West 9.2 mph - N/A   Clear
7:05 AM 68.4 °F - 58.6 °F 71% 30.24 in 10.0 mi West 9.2 mph - N/A   Clear
7:25 AM 69.1 °F - 58.5 °F 69% 30.25 in 10.0 mi West 4.6 mph - N/A   Clear
7:45 AM 69.6 °F - 58.5 °F 68% 30.25 in 10.0 mi West 5.8 mph - N/A   Clear
8:05 AM 70.5 °F - 58.3 °F 65% 30.26 in 10.0 mi West 9.2 mph - N/A   Clear
8:25 AM 71.1 °F - 58.3 °F 64% 30.26 in 10.0 mi West 11.5 mph - N/A   Clear
8:45 AM 71.8 °F - 58.3 °F 62% 30.27 in 10.0 mi West 8.1 mph 17.3 mph N/A   Clear
9:05 AM 72.0 °F - 58.3 °F 62% 30.26 in 10.0 mi West 5.8 mph - N/A   Clear
9:25 AM 72.5 °F - 57.6 °F 59% 30.27 in 10.0 mi WNW 5.8 mph 17.3 mph N/A   Clear
9:45 AM 73.2 °F - 57.9 °F 59% 30.26 in 10.0 mi WNW 9.2 mph 17.3 mph N/A   Clear
10:05 AM 73.6 °F - 58.6 °F 59% 30.26 in 10.0 mi WNW 17.3 mph 25.3 mph N/A   Clear
10:25 AM 74.5 °F - 58.8 °F 58% 30.26 in 10.0 mi WNW 10.4 mph 18.4 mph N/A   Scattered Clouds
10:45 AM 75.4 °F - 57.9 °F 54% 30.26 in 10.0 mi West 10.4 mph 20.7 mph N/A   Mostly Cloudy
11:05 AM 74.7 °F - 57.7 °F 55% 30.25 in 10.0 mi West 9.2 mph - N/A   Mostly Cloudy
11:25 AM 75.9 °F - 56.3 °F 50% 30.25 in 10.0 mi West 12.7 mph 18.4 mph N/A   Mostly Cloudy
11:45 AM 75.9 °F - 56.1 °F 50% 30.25 in 10.0 mi West 11.5 mph 21.9 mph N/A   Mostly Cloudy
12:05 PM 76.8 °F - 56.3 °F 49% 30.25 in 10.0 mi West 11.5 mph 19.6 mph N/A   Mostly Cloudy
12:25 PM 77.2 °F - 55.4 °F 47% 30.25 in 10.0 mi West 15.0 mph 21.9 mph N/A   Mostly Cloudy
12:45 PM 77.7 °F - 55.6 °F 46% 30.24 in 10.0 mi West 17.3 mph 24.2 mph N/A   Scattered Clouds
1:05 PM 77.7 °F - 55.0 °F 45% 30.24 in 10.0 mi West 16.1 mph - N/A   Scattered Clouds
1:25 PM 78.3 °F - 52.7 °F 41% 30.24 in 10.0 mi West 13.8 mph 23.0 mph N/A   Clear
1:45 PM 79.2 °F - 53.8 °F 41% 30.24 in 10.0 mi WNW 12.7 mph 19.6 mph N/A   Clear
2:05 PM 79.5 °F - 54.1 °F 41% 30.24 in 10.0 mi WNW 9.2 mph 21.9 mph N/A   Scattered Clouds
2:25 PM 79.3 °F - 54.7 °F 42% 30.23 in 10.0 mi West 15.0 mph 20.7 mph N/A   Clear
2:45 PM 80.2 °F 80.2 °F 54.9 °F 41% 30.22 in 10.0 mi West 11.5 mph 23.0 mph N/A   Scattered Clouds
3:05 PM 79.7 °F - 53.1 °F 40% 30.22 in 10.0 mi West 13.8 mph 25.3 mph N/A   Scattered Clouds
3:25 PM 79.3 °F - 52.2 °F 39% 30.20 in 10.0 mi West 9.2 mph 18.4 mph N/A   Clear
3:45 PM 80.1 °F 79.9 °F 53.1 °F 39% 30.20 in 10.0 mi West 11.5 mph 21.9 mph N/A   Clear
4:05 PM 80.2 °F 80.2 °F 54.7 °F 41% 30.19 in 10.0 mi West 8.1 mph - N/A   Clear
4:25 PM 80.8 °F 80.4 °F 53.8 °F 39% 30.19 in 10.0 mi West 13.8 mph 23.0 mph N/A   Clear
4:45 PM 80.1 °F 80.1 °F 54.3 °F 41% 30.19 in 10.0 mi West 12.7 mph 20.7 mph N/A   Clear
5:05 PM - - - N/A% 30.18 in 10.0 mi West 6.9 mph - N/A   Clear
5:25 PM 80.1 °F 80.4 °F 56.8 °F 45% 30.18 in 10.0 mi West 8.1 mph - N/A   Scattered Clouds
5:45 PM 79.2 °F - 55.2 °F 44% 30.17 in 10.0 mi West 6.9 mph 17.3 mph N/A   Scattered Clouds
6:05 PM 79.9 °F - 55.4 °F 43% 30.17 in 10.0 mi West 6.9 mph - N/A   Scattered Clouds
6:25 PM - - - N/A% 30.17 in 10.0 mi West 8.1 mph - N/A   Clear
6:45 PM 77.7 °F - 54.7 °F 45% 30.17 in 10.0 mi WSW 11.5 mph - N/A   Clear
7:05 PM 76.8 °F - 54.1 °F 45% 30.17 in 10.0 mi West 11.5 mph - N/A   Clear
7:25 PM - - - N/A% 30.17 in 10.0 mi West 6.9 mph - N/A   Clear
7:45 PM 76.1 °F - 54.9 °F 48% 30.17 in 10.0 mi West 10.4 mph 16.1 mph N/A   Clear
8:05 PM - - - N/A% 30.17 in 10.0 mi West 8.1 mph - N/A   Clear
8:25 PM 75.0 °F - 54.7 °F 49% 30.16 in 10.0 mi West 10.4 mph - N/A   Clear
8:45 PM 74.3 °F - 54.3 °F 50% 30.16 in 10.0 mi West 9.2 mph - N/A   Clear
9:05 PM 74.3 °F - 54.1 °F 49% 30.16 in 10.0 mi West 10.4 mph 18.4 mph N/A   Clear
9:25 PM 73.9 °F - 54.1 °F 50% 30.15 in 10.0 mi West 10.4 mph - N/A   Clear
9:45 PM 73.6 °F - 54.7 °F 51% 30.15 in 10.0 mi West 11.5 mph 18.4 mph N/A   Clear
10:05 PM 73.6 °F - 55.4 °F 53% 30.15 in 10.0 mi West 10.4 mph - N/A   Clear
10:25 PM 73.6 °F - 55.9 °F 54% 30.16 in 10.0 mi West 12.7 mph 19.6 mph N/A   Clear
10:45 PM 73.6 °F - 56.3 °F 55% 30.15 in 10.0 mi West 15.0 mph 20.7 mph N/A   Scattered Clouds
11:05 PM 73.4 °F - 56.7 °F 56% 30.16 in 10.0 mi WNW 6.9 mph 23.0 mph N/A   Scattered Clouds
11:25 PM 71.8 °F - 56.8 °F 59% 30.15 in 10.0 mi NW 10.4 mph 16.1 mph N/A   Scattered Clouds
11:45 PM 67.5 °F - 57.0 °F 69% 30.16 in 10.0 mi Calm Calm - N/A   Scattered Clouds